Flag for Ireland Weather past 2 weeks in Cork, Ireland

Now
59 °F

Scattered clouds.


Feels Like: 58 °F
Forecast: 52 / 63 °F
Wind: 7 mph from Southwest

Location: Cork Airport

Current Time: Oct 2, 2014 at 2:33:28 PM

Latest Report: Oct 2, 2014 at 1:00 PM


Visibility: 31 mi

Pressure: 30.30 "Hg

Humidity: 70%

Dew point: 49 °F

Location of CorkLocation

Historic Weather in Cork — Graph

°F

Cork temperature yesterday

Maximum temperature yesterday: 61 °F (at 4:00 PM)
Minimum temperature yesterday: 50 °F (at 11:00 PM)
Average temperature yesterday: 56 °F

Past Weeks' High & Low Weather Summary

 TemperatureHumidityPressure
High67 °F (Sep 17, 3:00 PM)100% (Sep 22, 3:00 AM)30.44 "Hg (Sep 22, 3:00 AM)
Low47 °F (Sep 21, 8:00 AM)53% (Sep 24, 3:00 PM)29.76 "Hg (Sep 18, 3:00 PM)
Average58 °F88%30.13 "Hg
* Reported Sep 17 1:00 PM — Oct 2 1:00 PM, Cork, Weather by CustomWeather, © 2014

Note: Actual official high and low records may vary slightly from our data, if they occured in-between our weather recording intervals... More about our weather records

Advertising

Cork weather history for previous 24 hours

 ConditionsComfort  
Time TempWeatherWind HumidityBarometerVisibility
1:00 PM
Oct 2
59 °FScattered clouds.7 mph70%30.30 "Hg31 mi
12:00 PM58 °FPassing clouds.5 mph72%30.32 "Hg31 mi
11:00 AM56 °FPartly sunny.3 mph79%30.34 "Hg31 mi
10:00 AM53 °FScattered clouds.1 mph79%30.35 "Hg31 mi
9:00 AM49 °FPassing clouds.2 mph85%30.36 "Hg31 mi
8:00 AM48 °FPassing clouds.2 mph85%30.37 "Hg31 mi
7:00 AM48 °FOvercast.2 mph85%30.39 "Hg22 mi
6:00 AM48 °FOvercast.3 mph85%30.39 "Hg25 mi
5:00 AM48 °FOvercast.2 mph80%30.40 "Hg25 mi
4:00 AM49 °FOvercast.1 mph78%30.41 "Hg25 mi
3:00 AM49 °FOvercast.3 mph80%30.42 "Hg25 mi
2:00 AM50 °FOvercast.2 mph76%30.43 "Hg25 mi
1:00 AM50 °FOvercast.3 mph76%30.44 "Hg25 mi
12:00 AM49 °FOvercast.2 mph76%30.44 "Hg25 mi
11:00 PM
Oct 1
50 °FPassing clouds.3 mph74%30.44 "Hg25 mi
10:00 PM51 °FPassing clouds.3 mph73%30.43 "Hg28 mi
9:00 PM53 °FPassing clouds.3 mph67%30.42 "Hg31 mi
8:00 PM55 °FOvercast.6 mph62%30.41 "Hg31 mi
7:00 PM56 °FOvercast.6 mph62%30.39 "Hg37 mi
6:00 PM58 °FPartly sunny.5 mph61%30.37 "Hg28 mi
5:00 PM59 °FScattered clouds.5 mph62%30.35 "Hg28 mi
4:00 PM61 °FScattered clouds.5 mph61%30.34 "Hg28 mi
3:00 PM59 °FScattered clouds.7 mph68%30.33 "Hg31 mi
2:00 PM59 °FOvercast.6 mph73%30.33 "Hg31 mi
Weather by CustomWeather, © 2014

See weather overviewHow to use our weather pages